User: anonymous   Login
Location: Unspecified
(0.0000°N, 0.0000°E)
Time: 09:03:55
(UTC+02:00)
Language:

Cosmos 1943 Rocket - Orbit

View from above orbital plane
View from above orbital plane
View from above satellite
View from above satellite

Ground track
Ground track

The orbit data is extracted from the following two-line orbital elements,

1 19120U 88039B   15143.48033661  .00000116  00000-0  78369-4 0  9991
2 19120 071.0134 121.6145 0024167 267.0271 092.8088 14.19104603399179
Epoch (UTC): 23 May 2015 11:31:41
Eccentricity: 0.0024167
inclination: 71.0134°
perigee height: 811 km
apogee height: 846 km
right ascension of ascending node: 121.6145°
argument of perigee: 267.0271°
revolutions per day: 14.19104603
mean anomaly at epoch: 92.8088°
orbit number at epoch: 39917

The dashed part of the orbit path shows where the satellite is in the earth's shadow,  

DLR